Year,Month,Day,Hour,Minute,Value (Times are PST for insolation in W/m^2)
2018,11,03,00,00,0.00
2018,11,03,00,01,0.00
2018,11,03,00,02,0.00
2018,11,03,00,03,0.00
2018,11,03,00,04,0.00
2018,11,03,00,05,0.00
2018,11,03,00,06,0.00
2018,11,03,00,07,0.00
2018,11,03,00,08,0.00
2018,11,03,00,09,0.00
2018,11,03,00,10,0.00
2018,11,03,00,11,0.00
2018,11,03,00,12,0.00
2018,11,03,00,13,0.00
2018,11,03,00,14,0.00
2018,11,03,00,15,0.00
2018,11,03,00,16,0.00
2018,11,03,00,17,0.00
2018,11,03,00,18,0.00
2018,11,03,00,19,0.00
2018,11,03,00,20,0.00
2018,11,03,00,21,0.00
2018,11,03,00,22,0.00
2018,11,03,00,23,0.00
2018,11,03,00,24,0.00
2018,11,03,00,25,0.00
2018,11,03,00,26,0.00
2018,11,03,00,27,0.00
2018,11,03,00,28,0.00
2018,11,03,00,29,0.00
2018,11,03,00,30,0.00
2018,11,03,00,31,0.00
2018,11,03,00,32,0.00
2018,11,03,00,33,0.00
2018,11,03,00,34,0.00
2018,11,03,00,35,0.00
2018,11,03,00,36,0.00
2018,11,03,00,37,0.00
2018,11,03,00,38,0.00
2018,11,03,00,39,0.00
2018,11,03,00,40,0.00
2018,11,03,00,41,0.00
2018,11,03,00,42,0.00
2018,11,03,00,43,0.00
2018,11,03,00,44,0.00
2018,11,03,00,45,0.00
2018,11,03,00,46,0.00
2018,11,03,00,47,0.00
2018,11,03,00,48,0.00
2018,11,03,00,49,0.00
2018,11,03,00,50,0.00
2018,11,03,00,51,0.00
2018,11,03,00,52,0.00
2018,11,03,00,53,0.00
2018,11,03,00,54,0.00
2018,11,03,00,55,0.00
2018,11,03,00,56,0.00
2018,11,03,00,57,0.00
2018,11,03,00,58,0.00
2018,11,03,00,59,0.00
2018,11,03,01,00,0.00
2018,11,03,01,01,0.00
2018,11,03,01,02,0.00
2018,11,03,01,03,0.00
2018,11,03,01,04,0.00
2018,11,03,01,05,0.00
2018,11,03,01,06,0.00
2018,11,03,01,07,0.00
2018,11,03,01,08,0.00
2018,11,03,01,09,0.00
2018,11,03,01,10,0.00
2018,11,03,01,11,0.00
2018,11,03,01,12,0.00
2018,11,03,01,13,0.00
2018,11,03,01,14,0.00
2018,11,03,01,15,0.00
2018,11,03,01,16,0.00
2018,11,03,01,17,0.00
2018,11,03,01,18,0.00
2018,11,03,01,19,0.00
2018,11,03,01,20,0.00
2018,11,03,01,21,0.00
2018,11,03,01,22,0.00
2018,11,03,01,23,0.00
2018,11,03,01,24,0.00
2018,11,03,01,25,0.00
2018,11,03,01,26,0.00
2018,11,03,01,27,0.00
2018,11,03,01,28,0.00
2018,11,03,01,29,0.00
2018,11,03,01,30,0.00
2018,11,03,01,31,0.00
2018,11,03,01,32,0.00
2018,11,03,01,33,0.00
2018,11,03,01,34,0.00
2018,11,03,01,35,0.00
2018,11,03,01,36,0.00
2018,11,03,01,37,0.00
2018,11,03,01,38,0.00
2018,11,03,01,39,0.00
2018,11,03,01,40,0.00
2018,11,03,01,41,0.00
2018,11,03,01,42,0.00
2018,11,03,01,43,0.00
2018,11,03,01,44,0.00
2018,11,03,01,45,0.00
2018,11,03,01,46,0.00
2018,11,03,01,47,0.00
2018,11,03,01,48,0.00
2018,11,03,01,49,0.00
2018,11,03,01,50,0.00
2018,11,03,01,51,0.00
2018,11,03,01,52,0.00
2018,11,03,01,53,0.00
2018,11,03,01,54,0.00
2018,11,03,01,55,0.00
2018,11,03,01,56,0.00
2018,11,03,01,57,0.00
2018,11,03,01,58,0.00
2018,11,03,01,59,0.00
2018,11,03,02,00,0.00
2018,11,03,02,01,0.00
2018,11,03,02,02,0.00
2018,11,03,02,03,0.00
2018,11,03,02,04,0.00
2018,11,03,02,05,0.00
2018,11,03,02,06,0.00
2018,11,03,02,07,0.00
2018,11,03,02,08,0.00
2018,11,03,02,09,0.00
2018,11,03,02,10,0.00
2018,11,03,02,11,0.00
2018,11,03,02,12,0.00
2018,11,03,02,13,0.00
2018,11,03,02,14,0.00
2018,11,03,02,15,0.00
2018,11,03,02,16,0.00
2018,11,03,02,17,0.00
2018,11,03,02,18,0.00
2018,11,03,02,19,0.00
2018,11,03,02,20,0.00
2018,11,03,02,21,0.00
2018,11,03,02,22,0.00
2018,11,03,02,23,0.00
2018,11,03,02,24,0.00
2018,11,03,02,25,0.00
2018,11,03,02,26,0.00
2018,11,03,02,27,0.00
2018,11,03,02,28,0.00
2018,11,03,02,29,0.00
2018,11,03,02,30,0.00
2018,11,03,02,31,0.00
2018,11,03,02,32,0.00
2018,11,03,02,33,0.00
2018,11,03,02,34,0.00
2018,11,03,02,35,0.00
2018,11,03,02,36,0.00
2018,11,03,02,37,0.00
2018,11,03,02,38,0.00
2018,11,03,02,39,0.00
2018,11,03,02,40,0.00
2018,11,03,02,41,0.00
2018,11,03,02,42,0.00
2018,11,03,02,43,0.00
2018,11,03,02,44,0.00
2018,11,03,02,45,0.00
2018,11,03,02,46,0.00
2018,11,03,02,47,0.00
2018,11,03,02,48,0.00
2018,11,03,02,49,0.00
2018,11,03,02,50,0.00
2018,11,03,02,51,0.00
2018,11,03,02,52,0.00
2018,11,03,02,53,0.00
2018,11,03,02,54,0.00
2018,11,03,02,55,0.00
2018,11,03,02,56,0.00
2018,11,03,02,57,0.00
2018,11,03,02,58,0.00
2018,11,03,02,59,0.00
2018,11,03,03,00,0.00
2018,11,03,03,01,0.00
2018,11,03,03,02,0.00
2018,11,03,03,03,0.00
2018,11,03,03,04,0.00
2018,11,03,03,05,0.00
2018,11,03,03,06,0.00
2018,11,03,03,07,0.00
2018,11,03,03,08,0.00
2018,11,03,03,09,0.00
2018,11,03,03,10,0.00
2018,11,03,03,11,0.00
2018,11,03,03,12,0.00
2018,11,03,03,13,0.00
2018,11,03,03,14,0.00
2018,11,03,03,15,0.00
2018,11,03,03,16,0.00
2018,11,03,03,17,0.00
2018,11,03,03,18,0.00
2018,11,03,03,19,0.00
2018,11,03,03,20,0.00
2018,11,03,03,21,0.00
2018,11,03,03,22,0.00
2018,11,03,03,23,0.00
2018,11,03,03,24,0.00
2018,11,03,03,25,0.00
2018,11,03,03,26,0.00
2018,11,03,03,27,0.00
2018,11,03,03,28,0.00
2018,11,03,03,29,0.00
2018,11,03,03,30,0.00
2018,11,03,03,31,0.00
2018,11,03,03,32,0.00
2018,11,03,03,33,0.00
2018,11,03,03,34,0.00
2018,11,03,03,35,0.00
2018,11,03,03,36,0.00
2018,11,03,03,37,0.00
2018,11,03,03,38,0.00
2018,11,03,03,39,0.00
2018,11,03,03,40,0.00
2018,11,03,03,41,0.00
2018,11,03,03,42,0.00
2018,11,03,03,43,0.00
2018,11,03,03,44,0.00
2018,11,03,03,45,0.00
2018,11,03,03,46,0.00
2018,11,03,03,47,0.00
2018,11,03,03,48,0.00
2018,11,03,03,49,0.00
2018,11,03,03,50,0.00
2018,11,03,03,51,0.00
2018,11,03,03,52,0.00
2018,11,03,03,53,0.00
2018,11,03,03,54,0.00
2018,11,03,03,55,0.00
2018,11,03,03,56,0.00
2018,11,03,03,57,0.00
2018,11,03,03,58,0.00
2018,11,03,03,59,0.00
2018,11,03,04,00,0.00
2018,11,03,04,01,0.00
2018,11,03,04,02,0.00
2018,11,03,04,03,0.00
2018,11,03,04,04,0.00
2018,11,03,04,05,0.00
2018,11,03,04,06,0.00
2018,11,03,04,07,0.00
2018,11,03,04,08,0.00
2018,11,03,04,09,0.00
2018,11,03,04,10,0.00
2018,11,03,04,11,0.00
2018,11,03,04,12,0.00
2018,11,03,04,13,0.00
2018,11,03,04,14,0.00
2018,11,03,04,15,0.00
2018,11,03,04,16,0.00
2018,11,03,04,17,0.00
2018,11,03,04,18,0.00
2018,11,03,04,19,0.00
2018,11,03,04,20,0.00
2018,11,03,04,21,0.00
2018,11,03,04,22,0.00
2018,11,03,04,23,0.00
2018,11,03,04,24,0.00
2018,11,03,04,25,0.00
2018,11,03,04,26,0.00
2018,11,03,04,27,0.00
2018,11,03,04,28,0.00
2018,11,03,04,29,0.00
2018,11,03,04,30,0.00
2018,11,03,04,31,0.00
2018,11,03,04,32,0.00
2018,11,03,04,33,0.00
2018,11,03,04,34,0.00
2018,11,03,04,35,0.00
2018,11,03,04,36,0.00
2018,11,03,04,37,0.00
2018,11,03,04,38,0.00
2018,11,03,04,39,0.00
2018,11,03,04,40,0.00
2018,11,03,04,41,0.00
2018,11,03,04,42,0.00
2018,11,03,04,43,0.00
2018,11,03,04,44,0.00
2018,11,03,04,45,0.00
2018,11,03,04,46,0.00
2018,11,03,04,47,0.00
2018,11,03,04,48,0.00
2018,11,03,04,49,0.00
2018,11,03,04,50,0.00
2018,11,03,04,51,0.00
2018,11,03,04,52,0.00
2018,11,03,04,53,0.00
2018,11,03,04,54,0.00
2018,11,03,04,55,0.00
2018,11,03,04,56,0.00
2018,11,03,04,57,0.00
2018,11,03,04,58,0.00
2018,11,03,04,59,0.00
2018,11,03,05,00,0.00
2018,11,03,05,01,0.00
2018,11,03,05,02,0.00
2018,11,03,05,03,0.00
2018,11,03,05,04,0.00
2018,11,03,05,05,0.00
2018,11,03,05,06,0.00
2018,11,03,05,07,0.00
2018,11,03,05,08,0.00
2018,11,03,05,09,0.00
2018,11,03,05,10,0.00
2018,11,03,05,11,0.00
2018,11,03,05,12,0.00
2018,11,03,05,13,0.00
2018,11,03,05,14,0.00
2018,11,03,05,15,0.00
2018,11,03,05,16,0.00
2018,11,03,05,17,0.00
2018,11,03,05,18,0.00
2018,11,03,05,19,0.00
2018,11,03,05,20,0.00
2018,11,03,05,21,0.00
2018,11,03,05,22,0.00
2018,11,03,05,23,0.00
2018,11,03,05,24,0.00
2018,11,03,05,25,0.00
2018,11,03,05,26,0.00
2018,11,03,05,27,0.00
2018,11,03,05,28,0.00
2018,11,03,05,29,0.00
2018,11,03,05,30,0.00
2018,11,03,05,31,0.00
2018,11,03,05,32,0.00
2018,11,03,05,33,0.00
2018,11,03,05,34,0.00
2018,11,03,05,35,0.00
2018,11,03,05,36,0.00
2018,11,03,05,37,0.00
2018,11,03,05,38,0.00
2018,11,03,05,39,0.00
2018,11,03,05,40,0.00
2018,11,03,05,41,0.00
2018,11,03,05,42,0.00
2018,11,03,05,43,0.00
2018,11,03,05,44,0.00
2018,11,03,05,45,0.00
2018,11,03,05,46,0.00
2018,11,03,05,47,0.00
2018,11,03,05,48,0.00
2018,11,03,05,49,0.00
2018,11,03,05,50,0.00
2018,11,03,05,51,0.00
2018,11,03,05,52,0.00
2018,11,03,05,53,0.00
2018,11,03,05,54,0.00
2018,11,03,05,55,0.00
2018,11,03,05,56,0.00
2018,11,03,05,57,0.00
2018,11,03,05,58,0.00
2018,11,03,05,59,0.00
2018,11,03,06,00,0.00
2018,11,03,06,01,0.00
2018,11,03,06,02,0.00
2018,11,03,06,03,0.00
2018,11,03,06,04,0.00
2018,11,03,06,05,0.00
2018,11,03,06,06,0.00
2018,11,03,06,07,0.00
2018,11,03,06,08,0.00
2018,11,03,06,09,0.00
2018,11,03,06,10,0.00
2018,11,03,06,11,0.00
2018,11,03,06,12,0.00
2018,11,03,06,13,0.00
2018,11,03,06,14,0.00
2018,11,03,06,15,0.00
2018,11,03,06,16,0.00
2018,11,03,06,17,0.00
2018,11,03,06,18,0.00
2018,11,03,06,19,0.00
2018,11,03,06,20,0.00
2018,11,03,06,21,0.00
2018,11,03,06,22,0.00
2018,11,03,06,23,0.00
2018,11,03,06,24,0.00
2018,11,03,06,25,0.00
2018,11,03,06,26,0.00
2018,11,03,06,27,0.00
2018,11,03,06,28,0.00
2018,11,03,06,29,0.00
2018,11,03,06,30,0.00
2018,11,03,06,31,0.00
2018,11,03,06,32,0.00
2018,11,03,06,33,0.00
2018,11,03,06,34,0.00
2018,11,03,06,35,0.00
2018,11,03,06,36,0.00
2018,11,03,06,37,0.00
2018,11,03,06,38,0.00
2018,11,03,06,39,0.00
2018,11,03,06,40,0.00
2018,11,03,06,41,0.00
2018,11,03,06,42,0.00
2018,11,03,06,43,0.00
2018,11,03,06,44,0.00
2018,11,03,06,45,0.00
2018,11,03,06,46,0.00
2018,11,03,06,47,0.00
2018,11,03,06,48,0.00
2018,11,03,06,49,0.00
2018,11,03,06,50,0.00
2018,11,03,06,51,0.00
2018,11,03,06,52,0.00
2018,11,03,06,53,0.00
2018,11,03,06,54,0.00
2018,11,03,06,55,0.00
2018,11,03,06,56,0.00
2018,11,03,06,57,0.00
2018,11,03,06,58,0.00
2018,11,03,06,59,0.00
2018,11,03,07,00,0.00
2018,11,03,07,01,0.00
2018,11,03,07,02,0.00
2018,11,03,07,03,0.00
2018,11,03,07,04,0.00
2018,11,03,07,05,0.00
2018,11,03,07,06,0.00
2018,11,03,07,07,0.00
2018,11,03,07,08,0.00
2018,11,03,07,09,0.00
2018,11,03,07,10,0.00
2018,11,03,07,11,0.00
2018,11,03,07,12,0.00
2018,11,03,07,13,0.00
2018,11,03,07,14,0.00
2018,11,03,07,15,0.00
2018,11,03,07,16,0.00
2018,11,03,07,17,0.00
2018,11,03,07,18,0.00
2018,11,03,07,19,0.00
2018,11,03,07,20,0.00
2018,11,03,07,21,0.00
2018,11,03,07,22,0.00
2018,11,03,07,23,0.00
2018,11,03,07,24,0.00
2018,11,03,07,25,0.00
2018,11,03,07,26,0.00
2018,11,03,07,27,0.00
2018,11,03,07,28,0.00
2018,11,03,07,29,0.00
2018,11,03,07,30,0.00
2018,11,03,07,31,0.00
2018,11,03,07,32,0.00
2018,11,03,07,33,0.00
2018,11,03,07,34,0.00
2018,11,03,07,35,0.00
2018,11,03,07,36,0.00
2018,11,03,07,37,0.00
2018,11,03,07,38,0.00
2018,11,03,07,39,0.00
2018,11,03,07,40,0.00
2018,11,03,07,41,0.00
2018,11,03,07,42,0.00
2018,11,03,07,43,0.00
2018,11,03,07,44,0.00
2018,11,03,07,45,0.00
2018,11,03,07,46,0.00
2018,11,03,07,47,0.00
2018,11,03,07,48,0.00
2018,11,03,07,49,0.00
2018,11,03,07,50,0.00
2018,11,03,07,51,0.00
2018,11,03,07,52,0.00
2018,11,03,07,53,0.00
2018,11,03,07,54,0.00
2018,11,03,07,55,0.00
2018,11,03,07,56,0.00
2018,11,03,07,57,0.00
2018,11,03,07,58,0.00
2018,11,03,07,59,0.00
2018,11,03,08,00,0.00
2018,11,03,08,01,0.00
2018,11,03,08,02,0.00
2018,11,03,08,03,0.00
2018,11,03,08,04,0.00
2018,11,03,08,05,0.00
2018,11,03,08,06,0.00
2018,11,03,08,07,0.00
2018,11,03,08,08,0.00
2018,11,03,08,09,0.00
2018,11,03,08,10,0.00
2018,11,03,08,11,0.00
2018,11,03,08,12,0.00
2018,11,03,08,13,0.00
2018,11,03,08,14,0.00
2018,11,03,08,15,0.00
2018,11,03,08,16,0.00
2018,11,03,08,17,0.00
2018,11,03,08,18,0.00
2018,11,03,08,19,0.00
2018,11,03,08,20,0.00
2018,11,03,08,21,0.00
2018,11,03,08,22,0.00
2018,11,03,08,23,0.00
2018,11,03,08,24,0.00
2018,11,03,08,25,0.00
2018,11,03,08,26,0.00
2018,11,03,08,27,0.00
2018,11,03,08,28,0.00
2018,11,03,08,29,0.00
2018,11,03,08,30,0.00
2018,11,03,08,31,0.00
2018,11,03,08,32,0.00
2018,11,03,08,33,0.00
2018,11,03,08,34,0.00
2018,11,03,08,35,0.00
2018,11,03,08,36,0.00
2018,11,03,08,37,0.00
2018,11,03,08,38,0.00
2018,11,03,08,39,0.00
2018,11,03,08,40,0.00
2018,11,03,08,41,0.00
2018,11,03,08,42,0.00
2018,11,03,08,43,0.00
2018,11,03,08,44,0.00
2018,11,03,08,45,0.00
2018,11,03,08,46,0.00
2018,11,03,08,47,0.00
2018,11,03,08,48,0.00
2018,11,03,08,49,3.50
2018,11,03,08,50,5.00
2018,11,03,08,51,5.20
2018,11,03,08,52,7.00
2018,11,03,08,53,6.40
2018,11,03,08,54,5.90
2018,11,03,08,55,7.00
2018,11,03,08,56,8.40
2018,11,03,08,57,9.00
2018,11,03,08,58,9.00
2018,11,03,08,59,9.00
2018,11,03,09,00,9.00
2018,11,03,09,01,9.00
2018,11,03,09,02,10.20
2018,11,03,09,03,11.00
2018,11,03,09,04,11.00
2018,11,03,09,05,10.80
2018,11,03,09,06,8.60
2018,11,03,09,07,7.00
2018,11,03,09,08,7.00
2018,11,03,09,09,7.00
2018,11,03,09,10,7.00
2018,11,03,09,11,8.60
2018,11,03,09,12,9.00
2018,11,03,09,13,9.40
2018,11,03,09,14,11.00
2018,11,03,09,15,11.00
2018,11,03,09,16,11.00
2018,11,03,09,17,11.70
2018,11,03,09,18,12.00
2018,11,03,09,19,12.00
2018,11,03,09,20,12.40
2018,11,03,09,21,14.00
2018,11,03,09,22,14.00
2018,11,03,09,23,14.00
2018,11,03,09,24,14.00
2018,11,03,09,25,14.00
2018,11,03,09,26,15.90
2018,11,03,09,27,16.40
2018,11,03,09,28,18.00
2018,11,03,09,29,19.40
2018,11,03,09,30,23.40
2018,11,03,09,31,25.70
2018,11,03,09,32,27.70
2018,11,03,09,33,31.90
2018,11,03,09,34,33.90
2018,11,03,09,35,37.70
2018,11,03,09,36,39.00
2018,11,03,09,37,39.00
2018,11,03,09,38,39.00
2018,11,03,09,39,37.30
2018,11,03,09,40,36.80
2018,11,03,09,41,34.60
2018,11,03,09,42,32.70
2018,11,03,09,43,31.10
2018,11,03,09,44,28.90
2018,11,03,09,45,29.50
2018,11,03,09,46,31.60
2018,11,03,09,47,32.10
2018,11,03,09,48,33.40
2018,11,03,09,49,35.00
2018,11,03,09,50,35.90
2018,11,03,09,51,35.80
2018,11,03,09,52,32.90
2018,11,03,09,53,32.00
2018,11,03,09,54,32.00
2018,11,03,09,55,31.10
2018,11,03,09,56,28.70
2018,11,03,09,57,29.00
2018,11,03,09,58,26.80
2018,11,03,09,59,26.00
2018,11,03,10,00,30.90
2018,11,03,10,01,30.00
2018,11,03,10,02,30.00
2018,11,03,10,03,31.80
2018,11,03,10,04,35.00
2018,11,03,10,05,35.00
2018,11,03,10,06,35.00
2018,11,03,10,07,35.00
2018,11,03,10,08,36.60
2018,11,03,10,09,33.00
2018,11,03,10,10,33.00
2018,11,03,10,11,30.70
2018,11,03,10,12,31.00
2018,11,03,10,13,30.80
2018,11,03,10,14,31.60
2018,11,03,10,15,33.30
2018,11,03,10,16,37.00
2018,11,03,10,17,35.60
2018,11,03,10,18,34.00
2018,11,03,10,19,33.30
2018,11,03,10,20,29.20
2018,11,03,10,21,25.50
2018,11,03,10,22,30.00
2018,11,03,10,23,32.20
2018,11,03,10,24,35.10
2018,11,03,10,25,39.00
2018,11,03,10,26,40.80
2018,11,03,10,27,42.00
2018,11,03,10,28,45.40
2018,11,03,10,29,48.90
2018,11,03,10,30,48.40
2018,11,03,10,31,46.00
2018,11,03,10,32,46.00
2018,11,03,10,33,44.80
2018,11,03,10,34,49.20
2018,11,03,10,35,52.70
2018,11,03,10,36,57.70
2018,11,03,10,37,54.00
2018,11,03,10,38,53.60
2018,11,03,10,39,53.00
2018,11,03,10,40,55.90
2018,11,03,10,41,58.00
2018,11,03,10,42,48.60
2018,11,03,10,43,39.30
2018,11,03,10,44,40.70
2018,11,03,10,45,49.00
2018,11,03,10,46,51.10
2018,11,03,10,47,49.00
2018,11,03,10,48,52.00
2018,11,03,10,49,55.60
2018,11,03,10,50,56.70
2018,11,03,10,51,64.40
2018,11,03,10,52,58.80
2018,11,03,10,53,52.00
2018,11,03,10,54,48.60
2018,11,03,10,55,44.80
2018,11,03,10,56,46.50
2018,11,03,10,57,52.80
2018,11,03,10,58,50.60
2018,11,03,10,59,43.40
2018,11,03,11,00,47.30
2018,11,03,11,01,47.30
2018,11,03,11,02,36.70
2018,11,03,11,03,40.70
2018,11,03,11,04,42.40
2018,11,03,11,05,45.60
2018,11,03,11,06,44.60
2018,11,03,11,07,45.10
2018,11,03,11,08,44.00
2018,11,03,11,09,47.60
2018,11,03,11,10,47.30
2018,11,03,11,11,46.90
2018,11,03,11,12,46.20
2018,11,03,11,13,47.00
2018,11,03,11,14,47.00
2018,11,03,11,15,47.00
2018,11,03,11,16,48.40
2018,11,03,11,17,49.00
2018,11,03,11,18,48.80
2018,11,03,11,19,47.00
2018,11,03,11,20,47.00
2018,11,03,11,21,46.50
2018,11,03,11,22,46.00
2018,11,03,11,23,46.70
2018,11,03,11,24,47.00
2018,11,03,11,25,48.90
2018,11,03,11,26,49.00
2018,11,03,11,27,49.70
2018,11,03,11,28,51.00
2018,11,03,11,29,52.10
2018,11,03,11,30,53.70
2018,11,03,11,31,54.00
2018,11,03,11,32,53.90
2018,11,03,11,33,52.60
2018,11,03,11,34,51.00
2018,11,03,11,35,50.10
2018,11,03,11,36,47.80
2018,11,03,11,37,47.00
2018,11,03,11,38,46.10
2018,11,03,11,39,44.10
2018,11,03,11,40,44.00
2018,11,03,11,41,44.00
2018,11,03,11,42,44.00
2018,11,03,11,43,44.00
2018,11,03,11,44,45.40
2018,11,03,11,45,46.00
2018,11,03,11,46,44.00
2018,11,03,11,47,43.60
2018,11,03,11,48,42.60
2018,11,03,11,49,44.00
2018,11,03,11,50,42.80
2018,11,03,11,51,40.60
2018,11,03,11,52,51.50
2018,11,03,11,53,52.60
2018,11,03,11,54,47.90
2018,11,03,11,55,46.50
2018,11,03,11,56,53.30
2018,11,03,11,57,61.30
2018,11,03,11,58,67.90
2018,11,03,11,59,71.60
2018,11,03,12,00,73.40
2018,11,03,12,01,68.10
2018,11,03,12,02,65.70
2018,11,03,12,03,66.00
2018,11,03,12,04,63.80
2018,11,03,12,05,63.00
2018,11,03,12,06,63.00
2018,11,03,12,07,58.40
2018,11,03,12,08,60.00
2018,11,03,12,09,60.70
2018,11,03,12,10,60.20
2018,11,03,12,11,56.90
2018,11,03,12,12,56.00
2018,11,03,12,13,51.70
2018,11,03,12,14,49.10
2018,11,03,12,15,49.00
2018,11,03,12,16,48.30
2018,11,03,12,17,47.00
2018,11,03,12,18,47.00
2018,11,03,12,19,46.30
2018,11,03,12,20,46.00
2018,11,03,12,21,44.10
2018,11,03,12,22,44.00
2018,11,03,12,23,44.00
2018,11,03,12,24,44.00
2018,11,03,12,25,44.00
2018,11,03,12,26,42.60
2018,11,03,12,27,42.00
2018,11,03,12,28,40.00
2018,11,03,12,29,38.60
2018,11,03,12,30,36.30
2018,11,03,12,31,35.00
2018,11,03,12,32,33.80
2018,11,03,12,33,33.00
2018,11,03,12,34,32.10
2018,11,03,12,35,32.00
2018,11,03,12,36,32.00
2018,11,03,12,37,32.00
2018,11,03,12,38,32.00
2018,11,03,12,39,30.80
2018,11,03,12,40,30.00
2018,11,03,12,41,30.00
2018,11,03,12,42,32.00
2018,11,03,12,43,32.00
2018,11,03,12,44,32.00
2018,11,03,12,45,32.00
2018,11,03,12,46,32.00
2018,11,03,12,47,32.00
2018,11,03,12,48,32.00
2018,11,03,12,49,32.00
2018,11,03,12,50,32.00
2018,11,03,12,51,31.30
2018,11,03,12,52,30.00
2018,11,03,12,53,30.00
2018,11,03,12,54,30.00
2018,11,03,12,55,30.00
2018,11,03,12,56,30.00
2018,11,03,12,57,30.00
2018,11,03,12,58,30.00
2018,11,03,12,59,30.00
2018,11,03,13,00,30.00
2018,11,03,13,01,30.00
2018,11,03,13,02,30.00
2018,11,03,13,03,30.00
2018,11,03,13,04,29.60
2018,11,03,13,05,27.30
2018,11,03,13,06,26.00
2018,11,03,13,07,25.40
2018,11,03,13,08,23.60
2018,11,03,13,09,23.00
2018,11,03,13,10,25.10
2018,11,03,13,11,26.00
2018,11,03,13,12,26.00
2018,11,03,13,13,26.00
2018,11,03,13,14,26.00
2018,11,03,13,15,26.00
2018,11,03,13,16,26.00
2018,11,03,13,17,25.00
2018,11,03,13,18,25.00
2018,11,03,13,19,25.00
2018,11,03,13,20,25.00
2018,11,03,13,21,25.00
2018,11,03,13,22,25.70
2018,11,03,13,23,27.70
2018,11,03,13,24,29.90
2018,11,03,13,25,30.00
2018,11,03,13,26,30.00
2018,11,03,13,27,30.00
2018,11,03,13,28,30.00
2018,11,03,13,29,30.00
2018,11,03,13,30,30.00
2018,11,03,13,31,32.00
2018,11,03,13,32,33.00
2018,11,03,13,33,33.70
2018,11,03,13,34,35.00
2018,11,03,13,35,35.00
2018,11,03,13,36,35.00
2018,11,03,13,37,36.60
2018,11,03,13,38,37.10
2018,11,03,13,39,39.00
2018,11,03,13,40,39.40
2018,11,03,13,41,40.00
2018,11,03,13,42,41.20
2018,11,03,13,43,42.00
2018,11,03,13,44,40.40
2018,11,03,13,45,39.90
2018,11,03,13,46,38.10
2018,11,03,13,47,35.00
2018,11,03,13,48,34.10
2018,11,03,13,49,32.40
2018,11,03,13,50,30.60
2018,11,03,13,51,28.40
2018,11,03,13,52,28.00
2018,11,03,13,53,28.00
2018,11,03,13,54,28.00
2018,11,03,13,55,28.90
2018,11,03,13,56,30.00
2018,11,03,13,57,28.60
2018,11,03,13,58,26.30
2018,11,03,13,59,25.00
2018,11,03,14,00,25.00
2018,11,03,14,01,25.30
2018,11,03,14,02,26.00
2018,11,03,14,03,26.00
2018,11,03,14,04,26.00
2018,11,03,14,05,27.60
2018,11,03,14,06,28.10
2018,11,03,14,07,30.00
2018,11,03,14,08,29.30
2018,11,03,14,09,29.00
2018,11,03,14,10,30.00
2018,11,03,14,11,31.40
2018,11,03,14,12,32.90
2018,11,03,14,13,38.90
2018,11,03,14,14,40.40
2018,11,03,14,15,41.30
2018,11,03,14,16,40.00
2018,11,03,14,17,40.00
2018,11,03,14,18,40.00
2018,11,03,14,19,40.00
2018,11,03,14,20,39.10
2018,11,03,14,21,39.40
2018,11,03,14,22,37.00
2018,11,03,14,23,36.00
2018,11,03,14,24,33.90
2018,11,03,14,25,33.00
2018,11,03,14,26,38.10
2018,11,03,14,27,39.20
2018,11,03,14,28,42.70
2018,11,03,14,29,46.30
2018,11,03,14,30,47.00
2018,11,03,14,31,45.30
2018,11,03,14,32,45.40
2018,11,03,14,33,46.00
2018,11,03,14,34,50.50
2018,11,03,14,35,47.00
2018,11,03,14,36,45.10
2018,11,03,14,37,43.00
2018,11,03,14,38,41.70
2018,11,03,14,39,37.90
2018,11,03,14,40,38.60
2018,11,03,14,41,42.10
2018,11,03,14,42,44.40
2018,11,03,14,43,44.70
2018,11,03,14,44,41.10
2018,11,03,14,45,43.60
2018,11,03,14,46,44.60
2018,11,03,14,47,50.00
2018,11,03,14,48,54.00
2018,11,03,14,49,63.40
2018,11,03,14,50,65.00
2018,11,03,14,51,64.10
2018,11,03,14,52,63.00
2018,11,03,14,53,59.50
2018,11,03,14,54,59.60
2018,11,03,14,55,60.00
2018,11,03,14,56,60.40
2018,11,03,14,57,62.00
2018,11,03,14,58,61.10
2018,11,03,14,59,56.40
2018,11,03,15,00,49.00
2018,11,03,15,01,44.40
2018,11,03,15,02,42.50
2018,11,03,15,03,45.60
2018,11,03,15,04,44.00
2018,11,03,15,05,36.60
2018,11,03,15,06,28.00
2018,11,03,15,07,28.00
2018,11,03,15,08,28.00
2018,11,03,15,09,28.70
2018,11,03,15,10,36.60
2018,11,03,15,11,35.00
2018,11,03,15,12,30.80
2018,11,03,15,13,25.40
2018,11,03,15,14,27.20
2018,11,03,15,15,31.30
2018,11,03,15,16,33.30
2018,11,03,15,17,37.00
2018,11,03,15,18,37.00
2018,11,03,15,19,35.10
2018,11,03,15,20,35.30
2018,11,03,15,21,41.90
2018,11,03,15,22,45.60
2018,11,03,15,23,46.00
2018,11,03,15,24,45.60
2018,11,03,15,25,44.00
2018,11,03,15,26,44.90
2018,11,03,15,27,47.80
2018,11,03,15,28,50.40
2018,11,03,15,29,49.30
2018,11,03,15,30,51.10
2018,11,03,15,31,53.00
2018,11,03,15,32,51.70
2018,11,03,15,33,45.80
2018,11,03,15,34,44.40
2018,11,03,15,35,48.20
2018,11,03,15,36,52.40
2018,11,03,15,37,54.00
2018,11,03,15,38,53.80
2018,11,03,15,39,53.30
2018,11,03,15,40,53.60
2018,11,03,15,41,51.90
2018,11,03,15,42,51.00
2018,11,03,15,43,51.00
2018,11,03,15,44,50.20
2018,11,03,15,45,43.60
2018,11,03,15,46,41.40
2018,11,03,15,47,39.60
2018,11,03,15,48,39.00
2018,11,03,15,49,39.00
2018,11,03,15,50,37.30
2018,11,03,15,51,35.10
2018,11,03,15,52,34.60
2018,11,03,15,53,33.00
2018,11,03,15,54,32.50
2018,11,03,15,55,32.60
2018,11,03,15,56,34.50
2018,11,03,15,57,35.00
2018,11,03,15,58,37.10
2018,11,03,15,59,39.00
2018,11,03,16,00,39.00
2018,11,03,16,01,39.00
2018,11,03,16,02,39.60
2018,11,03,16,03,40.00
2018,11,03,16,04,40.00
2018,11,03,16,05,40.00
2018,11,03,16,06,39.80
2018,11,03,16,07,39.00
2018,11,03,16,08,39.00
2018,11,03,16,09,39.60
2018,11,03,16,10,39.30
2018,11,03,16,11,37.40
2018,11,03,16,12,34.90
2018,11,03,16,13,33.00
2018,11,03,16,14,32.60
2018,11,03,16,15,31.10
2018,11,03,16,16,28.90
2018,11,03,16,17,26.60
2018,11,03,16,18,26.00
2018,11,03,16,19,25.10
2018,11,03,16,20,26.40
2018,11,03,16,21,28.00
2018,11,03,16,22,28.00
2018,11,03,16,23,26.80
2018,11,03,16,24,25.30
2018,11,03,16,25,25.00
2018,11,03,16,26,23.10
2018,11,03,16,27,23.40
2018,11,03,16,28,25.40
2018,11,03,16,29,26.00
2018,11,03,16,30,26.00
2018,11,03,16,31,27.50
2018,11,03,16,32,26.30
2018,11,03,16,33,24.60
2018,11,03,16,34,20.60
2018,11,03,16,35,19.00
2018,11,03,16,36,19.00
2018,11,03,16,37,20.20
2018,11,03,16,38,19.60
2018,11,03,16,39,19.00
2018,11,03,16,40,19.00
2018,11,03,16,41,17.90
2018,11,03,16,42,14.70
2018,11,03,16,43,15.10
2018,11,03,16,44,15.20
2018,11,03,16,45,14.60
2018,11,03,16,46,14.00
2018,11,03,16,47,13.90
2018,11,03,16,48,12.00
2018,11,03,16,49,12.70
2018,11,03,16,50,14.00
2018,11,03,16,51,12.90
2018,11,03,16,52,12.00
2018,11,03,16,53,13.70
2018,11,03,16,54,13.90
2018,11,03,16,55,12.40
2018,11,03,16,56,14.00
2018,11,03,16,57,13.10
2018,11,03,16,58,11.40
2018,11,03,16,59,11.00
2018,11,03,17,00,11.90
2018,11,03,17,01,13.90
2018,11,03,17,02,14.00
2018,11,03,17,03,14.60
2018,11,03,17,04,16.00
2018,11,03,17,05,14.80
2018,11,03,17,06,12.60
2018,11,03,17,07,12.00
2018,11,03,17,08,12.20
2018,11,03,17,09,13.30
2018,11,03,17,10,10.40
2018,11,03,17,11,8.10
2018,11,03,17,12,7.00
2018,11,03,17,13,9.90
2018,11,03,17,14,9.30
2018,11,03,17,15,9.00
2018,11,03,17,16,8.60
2018,11,03,17,17,7.00
2018,11,03,17,18,7.00
2018,11,03,17,19,7.00
2018,11,03,17,20,7.00
2018,11,03,17,21,7.00
2018,11,03,17,22,5.10
2018,11,03,17,23,5.00
2018,11,03,17,24,5.00
2018,11,03,17,25,2.80
2018,11,03,17,26,0.00
2018,11,03,17,27,3.60
2018,11,03,17,28,5.00
2018,11,03,17,29,0.20
2018,11,03,17,30,0.00
2018,11,03,17,31,0.00
2018,11,03,17,32,0.00
2018,11,03,17,33,0.00
2018,11,03,17,34,0.00
2018,11,03,17,35,0.00
2018,11,03,17,36,0.00
2018,11,03,17,37,0.00
2018,11,03,17,38,0.00
2018,11,03,17,39,0.00
2018,11,03,17,40,0.00
2018,11,03,17,41,0.00
2018,11,03,17,42,0.00
2018,11,03,17,43,0.00
2018,11,03,17,44,0.00